This demonstration page uses our WeatherBlox Daily Observations layout. Learn more.

Left ArrowRight Arrow

40.92945, -100.16068

Hourly Observations for April 1, 2021

Temp ( °F °C ) Dew Point ( °F °C ) Humidity (%) Winds ( mph kmh ) Pressure ( in mb ) Visibility ( mi km ) Precip ( " mm )
12:15 am 00:15 Clear 29 -1.7 17 -8.1 62 62 N N/A 30.60 1036 10 16 N/A
12:35 am 00:35 Clear 28 -2.1 20 -6.6 72 72 N N/A 30.60 1036 10 16 N/A
12:50 am 00:50 Clear 28 -2.5 21 -6 77 77 N N/A 30.60 1036 10 16 N/A
1:15 am 01:15 Clear 27 -3 22 -5.7 82 82 N N/A 30.61 1037 10 16 N/A
1:35 am 01:35 Clear 27 -2.9 21 -6 79 79 N N/A 30.61 1037 10 16 N/A
1:55 am 01:55 Clear 26 -3.1 19 -7.4 73 73 N N/A 30.61 1037 10 16 N/A
2:15 am 02:15 Clear 24 -4.6 19 -7.3 82 82 N N/A 30.64 1037 10 16 N/A
2:35 am 02:35 Clear 25 -4.1 21 -6.3 85 85 S 3 6 30.63 1037 10 16 N/A
2:55 am 02:55 Clear 29 -1.8 17 -8.5 61 61 N N/A 30.60 1036 10 16 N/A
3:15 am 03:15 Clear 26 -3.5 21 -6 83 83 N N/A 30.61 1037 10 16 N/A
3:35 am 03:35 Clear 24 -4.7 19 -7.4 82 82 N N/A 30.63 1037 10 16 N/A
3:55 am 03:55 Clear 24 -4.2 19 -7.2 80 80 N N/A 30.62 1037 10 16 N/A
4:15 am 04:15 Clear 24 -4.4 18 -7.7 78 78 N N/A 30.62 1037 10 16 N/A
4:35 am 04:35 Clear 22 -5.7 17 -8.4 81 81 N N/A 30.64 1037 10 16 N/A
4:55 am 04:55 Clear 23 -5 18 -7.8 81 81 N N/A 30.62 1037 10 16 N/A
5:15 am 05:15 Clear 23 -5.1 18 -7.6 83 83 N N/A 30.62 1037 10 16 N/A
5:35 am 05:35 Clear 24 -4.7 19 -7.4 82 82 N N/A 30.62 1037 10 16 N/A
5:55 am 05:55 Clear 23 -5 19 -7.4 83 83 N N/A 30.62 1037 10 16 N/A
6:15 am 06:15 Clear 24 -4.6 19 -7.3 82 82 N N/A 30.61 1036 10 16 N/A
6:35 am 06:35 Clear 24 -4.7 19 -7.3 82 82 N N/A 30.61 1036 10 16 N/A
6:55 am 06:55 Clear 24 -4.7 19 -7.5 81 81 N N/A 30.61 1036 10 16 N/A
7:15 am 07:15 Clear 25 -3.9 19 -7 79 79 S 6 9 30.60 1036 10 16 N/A
7:35 am 07:35 Sunny 27 -2.8 17 -8.2 67 67 S 5 7 30.59 1036 10 16 N/A
7:55 am 07:55 Sunny 29 -1.9 19 -7.2 67 67 SSE 5 7 30.58 1035 10 16 N/A
8:15 am 08:15 Hazy 31 -0.3 20 -6.5 63 63 S 7 11 30.56 1035 5 8 N/A
8:35 am 08:35 Hazy 34 1 22 -5.6 62 62 SSW 5 7 30.55 1034 3 4 N/A
8:55 am 08:55 Sunny 37 2.7 22 -5.5 55 55 S 6 9 30.53 1034 10 16 N/A
9:15 am 09:15 Sunny 40 4.2 22 -5.5 50 50 SSW 10 17 30.51 1033 10 16 N/A
9:35 am 09:35 Sunny 41 5.1 21 -6.1 45 45 S 20 31 30.50 1033 10 16 N/A
9:55 am 09:55 Sunny 43 6 21 -6.2 42 42 S 18 30 30.48 1032 10 16 N/A
10:15 am 10:15 Sunny 44 6.8 21 -6 40 40 SSW 14 22 30.46 1032 10 16 N/A
10:35 am 10:35 Sunny 46 7.5 21 -6 38 38 S 18 30 30.45 1031 10 16 N/A
10:55 am 10:55 Sunny 46 8 21 -6.2 36 36 S 21 33 30.45 1031 10 16 N/A
11:15 am 11:15 Sunny 47 8.6 23 -5 38 38 S 21 33 30.43 1031 10 16 N/A
11:35 am 11:35 Sunny 49 9.3 24 -4.5 38 38 SSW 21 33 30.42 1030 10 16 N/A
11:55 am 11:55 Sunny 50 10.2 24 -4.7 35 35 SSW 17 28 30.41 1030 10 16 N/A
12:15 pm 12:15 Sunny 52 11.1 23 -4.8 33 33 S 20 31 30.37 1028 10 16 N/A
12:35 pm 12:35 Sunny 53 11.6 23 -4.9 31 31 S 20 31 30.36 1028 10 16 N/A
12:55 pm 12:55 Sunny 54 12.1 23 -5.2 30 30 S 22 35 30.34 1027 10 16 N/A
1:15 pm 13:15 Sunny 55 13 22 -5.4 28 28 S 18 30 30.32 1027 10 16 N/A
1:35 pm 13:35 Sunny 56 13.6 22 -5.7 26 26 SSW 18 30 30.31 1026 10 16 N/A
1:55 pm 13:55 Sunny 58 14.5 24 -4.4 27 27 S 20 31 30.28 1025 10 16 N/A
2:15 pm 14:15 Sunny 58 14.5 22 -5.3 25 25 S 17 28 30.27 1025 10 16 N/A
2:35 pm 14:35 Sunny 60 15.3 24 -4.2 26 26 S 20 31 30.24 1024 7 11 N/A
2:55 pm 14:55 Sunny 60 15.7 24 -4.5 25 25 S 18 30 30.22 1023 7 11 N/A
3:15 pm 15:15 Sunny 61 16.3 24 -4.2 24 24 S 21 33 30.20 1023 10 16 N/A
3:35 pm 15:35 Sunny 62 16.4 25 -4 25 25 S 23 37 30.18 1022 10 16 N/A
3:55 pm 15:55 Sunny 62 16.8 25 -3.7 24 24 S 20 31 30.17 1022 10 16 N/A
4:15 pm 16:15 Sunny 63 17 26 -3.6 24 24 S 24 39 30.15 1021 10 16 N/A
4:35 pm 16:35 Sunny 63 17.2 26 -3.1 25 25 SSW 23 37 30.15 1021 10 16 N/A
4:55 pm 16:55 Sunny 63 17.1 27 -2.7 26 26 S 23 37 30.14 1021 10 16 N/A
5:15 pm 17:15 Sunny 63 17.3 27 -2.9 25 25 S 23 37 30.12 1020 10 16 N/A
5:35 pm 17:35 Sunny 63 17.2 27 -2.6 26 26 S 23 37 30.11 1020 10 16 N/A
5:55 pm 17:55 Sunny 63 17.3 27 -2.6 26 26 S 22 35 30.11 1019 7 11 N/A
6:15 pm 18:15 Hazy 63 17.2 28 -2.5 26 26 S 21 33 30.09 1019 3 5 N/A
6:35 pm 18:35 Sunny 63 17 28 -2.3 27 27 S 17 28 30.09 1019 10 16 N/A
6:55 pm 18:55 Sunny 62 16.6 28 -2.2 28 28 S 20 31 30.09 1019 10 16 N/A
7:15 pm 19:15 Sunny 61 16.1 28 -2.3 28 28 SSE 18 30 30.09 1019 10 16 N/A
7:35 pm 19:35 Sunny 59 15.2 29 -1.9 31 31 SSE 16 26 30.08 1019 7 11 N/A
7:55 pm 19:55 Sunny 58 14.4 28 -2 32 32 SSE 16 26 30.09 1019 10 16 N/A
8:15 pm 20:15 Clear 57 13.9 28 -2.4 33 33 SE 15 24 30.09 1019 10 16 N/A
8:35 pm 20:35 Clear 55 13 28 -2.2 35 35 SE 15 24 30.09 1019 10 16 N/A
8:55 pm 20:55 Clear 54 12.3 28 -2.1 37 37 SE 16 26 30.11 1020 10 16 N/A
9:15 pm 21:15 Clear 53 11.7 28 -2.1 38 38 SSE 16 26 30.12 1020 10 16 N/A
9:35 pm 21:35 Clear 52 11 29 -1.9 41 41 SSE 20 31 30.12 1020 10 16 N/A
9:55 pm 21:55 Clear 51 10.6 29 -1.9 42 42 SSE 20 31 30.14 1021 10 16 N/A
10:15 pm 22:15 Clear 50 10.2 29 -1.7 44 44 SSE 20 31 30.14 1021 10 16 N/A
10:35 pm 22:35 Clear 50 9.8 29 -1.7 45 45 SSE 17 28 30.14 1021 10 16 N/A
10:55 pm 22:55 Clear 49 9.4 29 -1.6 46 46 SSE 16 26 30.14 1021 10 16 N/A
11:15 pm 23:15 Clear 49 9.3 29 -1.6 47 47 SSE 15 24 30.14 1021 10 16 N/A
11:35 pm 23:35 Clear 48 8.8 29 -1.5 49 49 SSE 18 30 30.13 1020 10 16 N/A
11:55 pm 23:55 Clear 47 8.5 29 -1.5 50 50 SSE 16 26 30.14 1020 10 16 N/A

Powered by AerisWeather